LiveATC.Net - Listen to live air traffic control over the Internet!


ICAO: KOAJ  IATA: OAJ   Airport: Albert J Ellis Airport
City: Jacksonville   State/Province: North Carolina
Country: United States   Continent: North America
KOAJ METAR Weather: KOAJ 251756Z VRB03KT 10SM CLR 23/17 A3017 RMK AO2 SLP218 T02330172 10239 20161 58010
KOAJ Flight Activity (FlightAware)
KOAJ Airport Info   (iFlightPlanner)
KOAJ VFR Sectional Chart   (iFlightPlanner) 
KOAJ IFR Low Chart   (iFlightPlanner) 

KOAJ Gnd/Twr
Feed Status: UP   Listeners: 0
Listen in your browser - HTML5 player (in browser, HTML5)
Click here to listen with your own player (launches your MP3 player)
Archive Access: KOAJ Gnd/Twr
FacilityFrequency
Ellis Ground125.400
Ellis Tower132.650

NOTICE

Unauthorized use prohibited. See LiveATC.net Terms of Service


Airport/ARTCC Code
Frequency Search
(e.g., 124.400, 128.75)
Site-wide search
 


Browse Feeds
Top 50 Feeds
Coverage Map
Bad Weather Areas

LiveATC FAQ
Offer LiveATC feed
Contact LiveATC.net
Press Inquiries

LiveATC on iPhone
LiveATC on Android

Windows Phone
Windows 8/10

LiveATC Mobile
(Mobile browser)

ATC Audio Archives
Interesting Recordings

LiveATC Forums


Home Page
About LiveATC.net
Make a Donation
Terms of Use
Privacy Policy

Canadian Air Freqs

AIRMETs/SIGMETs

FAA Airport Status
Nat'l Airspace Status
Arrival Demand Charts


Server Software By:
Icecast.org
Liquidsoap